Location: Arapaho Elementary School
(32.9607°N, 96.7625°W)
Time: 11:08:39
(UTC+00:00)

Cosmos 2228 Rocket - Pass Details

Date: 12 July 2022
Orbit: 618 x 651 km, 82.5° (Epoch: 09 August)

Event Time Altitude Azimuth Distance (km) Brightness Sun altitude
Rises 08:54:59 0° 355° (N) 2,933 7.2 -25.5°
Reaches altitude 10° 08:57:14 10° 358° (N) 2,027 6.3 -25.2°
Maximum altitude 09:01:43 74° 83° (E) 667 3.2 -24.6°
Enters shadow 09:02:07 69° 128° (SE) 688 3.1 -24.5°
